Weather History for MRLB - March, 2013

Change the Weather History Date:

Tuesday, March 26, 2013

  Actual Average Record
Temperature  
Mean Temperature 85 °F -  
Max Temperature 97 °F 93 °F 98 °F (1998)
Min Temperature 73 °F 76 °F 66 °F (2011)
Cooling Degree Days 20    
Growing Degree Days 35 (Base 50)    
Moisture  
Dew Point 64 °F    
Average Humidity 43    
Maximum Humidity 65    
Minimum Humidity 25    
Precipitation  
Precipitation 0.00 in - - ()
Sea Level Pressure  
Sea Level Pressure 29.81 in    
Wind  
Wind Speed 17 mph ()    
Max Wind Speed 28 mph    
Max Gust Speed 34 mph    
Visibility 8.4 miles    
Events      
Averages and records for this station are not official NWS values.
T = Trace of Precipitation, MM = Missing Value Source: Averaged Metar Reports

Daily Weather History Graph

Daily Weather History Graph

Search for Another Location

Airport or City:

Trip Planner

Search our weather history database for the weather conditions in past years. The results will help you decide how hot, cold, wet, or windy it might be!

Date:

Astronomy

Mar. 26, 2013 Rise Set
Actual Time 5:42 AM CST 5:52 PM CST
Civil Twilight 5:21 AM CST 6:14 PM CST
Nautical Twilight 4:57 AM CST 6:38 PM CST
Astronomical Twilight 4:32 AM CST 7:03 PM CST
Moon 5:25 PM CST (3/26) 4:55 AM CST (3/26)
Length of Visible Light 12h 52m
Length of Day
12h 10m
Waxing Gibbous, 99% of the Moon is Illuminated
Mar 26
Waxing Gibbous
Mar 27
Full
Apr 2
Last Quarter
Apr 10
New
Apr 18
First Quarter

Hourly Weather History & Observations

Time (CST) Temp. Heat Index Dew Point Humidity Pressure Visibility Wind Dir Wind Speed Gust Speed Precip Events Conditions
6:00 AM 80 °F - 67 °F 55% 29.81 in 12 mi NE 11.5 mph - -   Clear
6:00 AM 78.8 °F - 66.2 °F 65% 29.79 in - NE 11.5 mph - N/A   Clear
7:00 AM 82.4 °F 84.6 °F 66.2 °F 58% 29.83 in - NNE 8.1 mph - N/A   Clear
8:00 AM 86.0 °F 88.2 °F 66.2 °F 51% 29.85 in - ENE 20.7 mph - N/A   Clear
9:00 AM 88 °F - 64 °F 35% 29.86 in 12 mi ENE 23.0 mph - -   Scattered Clouds
9:00 AM 87.8 °F 89.4 °F 64.4 °F 46% 29.85 in 6.2 mi ENE 23.0 mph 34.5 mph N/A   Partly Cloudy
10:00 AM 89.6 °F 91.1 °F 64.4 °F 43% 29.84 in 6.2 mi ENE 23.0 mph - N/A   Partly Cloudy
11:00 AM 91.4 °F 93.2 °F 64.4 °F 41% 29.84 in 6.2 mi ENE 25.3 mph - N/A   Partly Cloudy
12:00 PM 94 °F - 63 °F 26% 29.83 in 12 mi ENE 27.6 mph - -   Scattered Clouds
12:00 PM 93.2 °F 94.1 °F 62.6 °F 36% 29.81 in 6.2 mi ENE 27.6 mph - N/A   Partly Cloudy
1:00 PM 95.0 °F 96.0 °F 62.6 °F 34% 29.78 in 6.2 mi NE 27.6 mph - N/A   Mostly Cloudy
2:00 PM 95.0 °F 96.0 °F 62.6 °F 34% 29.75 in 6.2 mi ENE 26.5 mph - N/A   Mostly Cloudy
3:00 PM 96 °F - 64 °F 25% 29.74 in 12 mi ENE 24.2 mph - -   Scattered Clouds
3:00 PM 96.8 °F 99.0 °F 64.4 °F 34% 29.73 in 6.2 mi ENE 24.2 mph - N/A   Mostly Cloudy
4:00 PM 93.2 °F 93.3 °F 60.8 °F 34% 29.73 in 6.2 mi NE 26.5 mph - N/A   Mostly Cloudy
5:00 PM 89.6 °F 90.1 °F 62.6 °F 40% 29.75 in - ENE 21.9 mph - N/A   Clear
6:00 PM 88 °F - 64 °F 35% 29.79 in 12 mi ENE 20.7 mph - -   Clear
6:00 PM 87.8 °F 89.4 °F 64.4 °F 46% 29.77 in - ENE 20.7 mph - N/A   Clear
7:00 PM 84.2 °F 85.6 °F 64.4 °F 51% 29.81 in - NE 25.3 mph - N/A   Clear
8:00 PM 82.4 °F 83.9 °F 64.4 °F 54% 29.84 in - ENE 17.3 mph - N/A   Clear
9:00 PM 82.4 °F 83.9 °F 64.4 °F 54% 29.85 in - ENE 18.4 mph - N/A   Clear
10:00 PM 80.6 °F 82.3 °F 64.4 °F 58% 29.87 in - East 17.3 mph - N/A   Clear